EW6087 Weather Reports


time (UTC)temp
C
wind
direction
speed
KPH
gust
KPH
rain 1hr
cm
rain 24hr
cm
rain mn
cm
humidity
%
barometer
mb
20260506073023 9 65 0.0 4.8 0.00 0.00 0.00 75 1013.1
20260506071521 9 317 0.0 4.8 0.00 0.00 0.00 74 1012.8
20260506061538 9 355 0.0 4.8 0.00 0.00 0.00 74 1012.9
20260506044508 9 109 0.0 4.8 0.00 0.00 0.00 72 1012.7
20260506043007 9 334 0.0 6.4 0.00 0.00 0.00 74 1012.8
20260506041503 9 23 0.0 4.8 0.00 0.00 0.00 75 1012.6
20260506040002 9 9 1.6 11.3 0.00 0.00 0.00 77 1012.6
20260506034502 9 312 1.6 8.0 0.00 0.00 0.00 79 1012.6
20260506033058 9 236 1.6 12.9 0.00 0.00 0.00 80 1012.1
20260506031513 9 62 1.6 8.0 0.00 0.00 0.00 80 1011.4
20260506030018 9 22 1.6 11.3 0.00 0.00 0.00 81 1011.4
20260506024530 9 69 1.6 20.9 0.00 0.00 0.00 82 1011.6
20260506023009 9 31 1.6 12.9 0.00 0.00 0.00 82 1011.9
20260506021507 9 82 1.6 9.7 0.00 0.00 0.00 82 1011.5
20260506020007 9 17 3.2 12.9 0.00 0.00 0.00 83 1011.1
20260506014507 9 92 1.6 11.3 0.00 0.00 0.00 82 1011.2
20260506013001 10 34 0.0 6.4 0.00 0.00 0.00 81 1010.9
20260506011607 10 69 0.0 8.0 0.00 0.00 0.00 81 1010.8
20260506010057 10 23 0.0 9.7 0.00 0.00 0.00 81 1010.4
20260506004553 10 5 0.0 9.7 0.00 0.00 0.00 80 1009.8
20260506003052 10 82 1.6 8.0 0.00 0.00 0.00 79 1009.5
20260506001551 10 5 1.6 14.5 0.00 0.00 0.00 78 1009.3
20260506000048 10 317 0.0 6.4 0.00 0.00 0.00 77 1009.4
20260505234559 10 343 3.2 14.5 0.00 0.00 0.00 75 1009.0
20260505233046 11 325 1.6 9.7 0.00 0.00 0.00 75 1009.7
20260505231600 11 335 0.0 0.0 0.00 0.00 0.00 74 1009.4
20260505230040 11 61 0.0 0.0 0.00 0.00 0.00 73 1008.7
20260505224538 11 67 0.0 0.0 0.00 0.00 0.00 73 1008.8
20260505223037 11 44 0.0 0.0 0.00 0.00 0.00 74 1008.7
20260505221538 11 317 0.0 0.0 0.00 0.00 0.00 74 1008.3
20260505220037 12 46 0.0 0.0 0.00 0.00 0.00 73 1008.5
20260505214551 12 340 0.0 0.0 0.00 0.00 0.00 72 1007.7
20260505213031 12 5 0.0 0.0 0.00 0.00 0.00 73 1007.7
20260505211534 12 343 0.0 0.0 0.00 0.00 0.00 73 1007.8
20260505210030 12 290 0.0 0.0 0.00 0.00 0.00 74 1007.0
20260505204533 12 355 0.0 0.0 0.00 0.00 0.00 73 1008.2
20260505203026 12 303 0.0 0.0 0.00 0.00 0.00 74 1007.6
20260505201525 12 5 0.0 0.0 0.00 0.00 0.00 74 1007.1
20260505200030 12 83 0.0 0.0 0.00 0.00 0.00 75 1007.2
20260505194524 12 322 0.0 0.0 0.00 0.00 0.00 77 1007.3
20260505193023 12 5 0.0 0.0 0.00 0.00 0.00 78 1007.0
20260505191522 12 182 0.0 0.0 0.00 0.00 0.00 80 1006.9
20260505190026 12 5 0.0 0.0 0.00 0.00 0.00 79 1007.0
20260505184519 13 5 0.0 0.0 0.00 0.00 0.00 79 1006.6
20260505183021 13 37 0.0 0.0 0.00 0.00 0.00 77 1006.6
20260505181512 13 45 0.0 0.0 0.00 0.00 0.00 77 1006.3
20260505180014 13 336 0.0 0.0 0.00 0.00 0.00 79 1006.1
20260505174508 13 46 0.0 0.0 0.00 0.00 0.00 79 1005.7
20260505173005 13 320 0.0 0.0 0.00 0.00 0.00 80 1005.4
20260505171506 13 196 0.0 0.0 0.00 0.00 0.00 80 1005.0
20260505170002 13 5 0.0 0.0 0.00 0.00 0.00 81 1005.0
20260505164606 13 286 0.0 0.0 0.00 0.00 0.00 82 1004.7
20260505163056 13 5 0.0 0.0 0.00 0.00 0.00 81 1004.2
20260505161602 14 5 0.0 0.0 0.00 0.00 0.00 81 1003.6
20260505153043 16 220 0.0 0.0 0.00 0.00 0.00 82 1002.4
20260505151537 17 30 0.0 0.0 0.00 0.00 0.00 79 1001.9
20260505124518 20 126 0.0 0.0 0.00 0.00 0.00 83 999.8
20260505123007 20 130 0.0 0.0 0.00 0.00 0.00 83 999.6
20260505121503 20 136 0.0 0.0 0.00 0.00 0.00 81 999.3
20260505120059 20 259 0.0 0.0 0.00 0.00 0.00 80 999.2
20260505114600 20 259 0.0 0.0 0.00 0.00 0.00 78 999.0
20260505113113 21 259 0.0 0.0 0.00 0.00 0.00 77 998.5
20260505111552 21 259 0.0 0.0 0.00 0.00 0.00 76 997.8
20260505101552 21 202 0.0 0.0 0.00 0.00 0.00 75 996.9
20260505100045 21 167 0.0 0.0 0.00 0.00 0.00 75 996.9
20260505094543 22 138 0.0 0.0 0.00 0.00 0.00 74 996.9
20260505093055 22 167 0.0 0.0 0.00 0.00 0.00 74 996.8
20260505091551 22 246 0.0 0.0 0.00 0.00 0.00 74 996.8
20260505090043 22 194 0.0 0.0 0.00 0.00 0.00 74 997.0
20260505084541 22 117 0.0 0.0 0.00 0.00 0.00 74 997.1
20260505083038 22 205 0.0 0.0 0.00 0.00 0.00 74 997.3
20260505081537 22 221 0.0 0.0 0.00 0.00 0.00 75 997.5